North Myrtle Beach, SC

2:19 AM EST on December 13, 2017 (GMT -0500)
Grand Strand

Weather History for KCRE - May, 2013

Change the Weather History Date:

Wednesday, May 1, 2013

  Actual Average Record
Temperature  
Mean Temperature 67 °F 66 °F  
Max Temperature 75 °F 75 °F 90 °F (1953)
Min Temperature 59 °F 56 °F 42 °F (1993)
Degree Days  
Heating Degree Days 0 2  
Month to date heating degree days 0 2  
Since 1 July heating degree days 2390 2425  
Cooling Degree Days 2 3  
Month to date cooling degree days 2 3  
Year to date cooling degree days 36 45  
Growing Degree Days 16 (Base 50)    
Moisture  
Dew Point 59 °F    
Average Humidity 75    
Maximum Humidity 93    
Minimum Humidity 57    
Precipitation  
Precipitation 0.01 in 0.09 in 0.70 in (2016)
Month to date precipitation 0.01 0.09  
Year to date precipitation 15.07 14.08  
Sea Level Pressure  
Sea Level Pressure 30.16 in    
Wind  
Wind Speed 10 mph (NE)    
Max Wind Speed 17 mph    
Max Gust Speed 23 mph    
Visibility 9 miles    
Events Rain    
T = Trace of Precipitation, MM = Missing Value Source: NWS Daily Summary

Daily Weather History Graph

Daily Weather History Graph

Search for Another Location

Airport or City:

Trip Planner

Search our weather history database for the weather conditions in past years. The results will help you decide how hot, cold, wet, or windy it might be!

Date:

Astronomy

May. 01, 2013 Rise Set
Actual Time 6:25 AM EDT 7:58 PM EDT
Civil Twilight 5:59 AM EDT 8:25 PM EDT
Nautical Twilight 5:27 AM EDT 8:57 PM EDT
Astronomical Twilight 4:53 AM EDT 9:30 PM EDT
Moon 1:05 AM EDT (5/1) 12:02 PM EDT (5/1)
Length of Visible Light 14h 26m
Length of Day
13h 32m
Waning Gibbous, 59% of the Moon is Illuminated
May 1
Waning Gibbous
May 2
Last Quarter
May 9
New
May 18
First Quarter
May 25
Full

Hourly Weather History & Observations

Time (EDT) Temp. Dew Point Humidity Pressure Visibility Wind Dir Wind Speed Gust Speed Precip Events Conditions
12:53 AM 63.0 °F 57.9 °F 84% 30.12 in 10.0 mi NNE 9.2 mph - N/A   Partly Cloudy
1:53 AM 62.1 °F 57.9 °F 86% 30.11 in 10.0 mi NNE 9.2 mph - N/A   Clear
2:53 AM 60.1 °F 57.0 °F 90% 30.09 in 10.0 mi NNE 8.1 mph - N/A   Clear
3:53 AM 60.1 °F 57.0 °F 90% 30.10 in 10.0 mi NNE 9.2 mph - N/A   Clear
4:11 AM 59.0 °F 57.2 °F 94% 30.10 in 10.0 mi NNE 8.1 mph - N/A   Partly Cloudy
4:35 AM 59.0 °F 57.2 °F 94% 30.11 in 9.0 mi North 5.8 mph - N/A   Mostly Cloudy
4:53 AM 59.0 °F 57.0 °F 93% 30.11 in 9.0 mi NNE 8.1 mph - N/A   Overcast
5:53 AM 59.0 °F 55.9 °F 90% 30.13 in 10.0 mi NNE 9.2 mph - N/A   Overcast
6:45 AM 60.8 °F 55.4 °F 82% 30.13 in 10.0 mi NE 8.1 mph - N/A   Overcast
6:53 AM 60.1 °F 55.9 °F 86% 30.14 in 10.0 mi NE 10.4 mph - N/A   Overcast
7:00 AM 60.8 °F 55.4 °F 82% 30.14 in 10.0 mi NE 10.4 mph - N/A   Overcast
7:42 AM 60.8 °F 55.4 °F 82% 30.14 in 10.0 mi NNE 10.4 mph - N/A   Overcast
8:17 AM 60.8 °F 55.4 °F 82% 30.14 in 10.0 mi NNE 9.2 mph - N/A   Overcast
8:53 AM 63.0 °F 55.9 °F 78% 30.15 in 10.0 mi North 10.4 mph - N/A   Overcast
9:53 AM 64.9 °F 55.9 °F 73% 30.16 in 10.0 mi NE 17.3 mph 21.9 mph N/A   Overcast
11:18 AM 66.2 °F 57.2 °F 73% 30.19 in 10.0 mi NE 13.8 mph - N/A   Overcast
11:53 AM 70.0 °F 57.9 °F 65% 30.18 in 10.0 mi NNE 12.7 mph 20.7 mph N/A   Mostly Cloudy
12:23 PM 68.0 °F 57.2 °F 68% 30.17 in 10.0 mi NNE 12.7 mph - N/A   Overcast
12:37 PM 71.6 °F 59.0 °F 64% 30.16 in 10.0 mi NNE 12.7 mph 20.7 mph N/A   Overcast
12:50 PM 69.8 °F 57.2 °F 64% 30.16 in 10.0 mi NNE 10.4 mph - N/A   Mostly Cloudy
12:53 PM 71.1 °F 57.9 °F 63% 30.16 in 10.0 mi NNE 11.5 mph - N/A   Mostly Cloudy
1:32 PM 71.6 °F 57.2 °F 60% 30.15 in 10.0 mi NNE 12.7 mph - N/A   Mostly Cloudy
1:53 PM 73.9 °F 57.9 °F 57% 30.16 in 10.0 mi NNE 13.8 mph - N/A   Mostly Cloudy
2:53 PM 69.1 °F 60.1 °F 73% 30.17 in 10.0 mi ESE 8.1 mph - N/A   Overcast
3:53 PM 68.0 °F 60.1 °F 76% 30.16 in 10.0 mi ESE 11.5 mph - N/A   Mostly Cloudy
4:36 PM 68.0 °F 60.8 °F 78% 30.16 in 10.0 mi East 9.2 mph - N/A   Overcast
4:44 PM 68.0 °F 60.8 °F 78% 30.16 in 10.0 mi East 6.9 mph - N/A   Overcast
4:53 PM 68.0 °F 60.1 °F 76% 30.17 in 10.0 mi East 11.5 mph 16.1 mph N/A   Overcast
5:18 PM 66.2 °F 60.8 °F 83% 30.16 in 9.0 mi East 6.9 mph - N/A   Overcast
5:41 PM 66.2 °F 62.6 °F 88% 30.16 in 4.0 mi East 9.2 mph - 0.00 in Rain Light Rain
5:53 PM 66.9 °F 63.0 °F 87% 30.17 in 5.0 mi ENE 6.9 mph - 0.00 in   Overcast
6:19 PM 66.2 °F 62.6 °F 88% 30.17 in 4.0 mi NNE 6.9 mph - 0.00 in Rain Light Rain
6:31 PM 66.2 °F 62.6 °F 88% 30.17 in 2.0 mi North 6.9 mph - 0.01 in Rain Light Rain
6:53 PM 66.0 °F 63.0 °F 90% 30.17 in 5.0 mi NNE 8.1 mph - 0.01 in   Overcast
7:17 PM 66.2 °F 62.6 °F 88% 30.17 in 5.0 mi NE 8.1 mph - 0.00 in   Overcast
7:53 PM 64.9 °F 63.0 °F 93% 30.17 in 5.0 mi NE 9.2 mph - 0.00 in   Mostly Cloudy
8:32 PM 64.4 °F 62.6 °F 94% 30.18 in 10.0 mi NNE 9.2 mph - N/A   Overcast
8:50 PM 64.4 °F 62.6 °F 94% 30.19 in 10.0 mi NNE 9.2 mph - N/A   Overcast
8:53 PM 64.9 °F 62.1 °F 90% 30.19 in 10.0 mi NNE 10.4 mph - N/A   Overcast
9:10 PM 64.4 °F 62.6 °F 94% 30.19 in 10.0 mi NNE 8.1 mph - N/A   Overcast
9:38 PM 64.4 °F 62.6 °F 94% 30.20 in 10.0 mi NE 10.4 mph - N/A   Overcast
9:53 PM 64.9 °F 62.1 °F 90% 30.21 in 10.0 mi NE 9.2 mph - N/A   Overcast
10:53 PM 64.9 °F 63.0 °F 93% 30.21 in 10.0 mi NNE 8.1 mph - 0.00 in   Overcast
10:59 PM 64.4 °F 62.6 °F 94% 30.21 in 10.0 mi NE 9.2 mph - N/A   Overcast
11:53 PM 64.9 °F 63.0 °F 93% 30.21 in 10.0 mi NNE 6.9 mph - 0.00 in   Overcast